Powrót do katalogu

CZ-6A DEB

AktywnySSO
NORAD 58434·DEBRIS·🇨🇳 China

Wystrzelony Nov 11, 2022 z Taiyuan Satellite Launch Center

Loading…

Następne Przeloty (najbliższe 24 godziny)

TLE

Starzejące sięSource: Space-Track

Epoka: Sep 8, 2026, 20:49 UTC

1 58434U 22151AJC 26251.86784138  .00000105  00000-0  52274-4 0  9996
2 58434  98.7016 294.2072 0105020 171.7498 188.5443 14.32673600174656

Śledź CZ-6A DEB w czasie rzeczywistym z AllMySat

Download on the App Store